Theta_e
329 325 326 322 311 313 309 312 318 319 320 324 325 324 327 329 327 321 348 353 355 355 360 361 365 367 367 367 365 363 362 362 362 362 362 362 363 363 363 364 363 361 357 355 355 354 354 353 353
322 322 322 317 308 306 308 316 315 321 322 324 325 327 333 328 336 344 342 354 355 357 360 359 365 366 367 366 365 363 362 362 362 362 362 363 363 362 363 363 362 358 355 352 352 353 353 353 353
323 321 314 312 309 306 309 317 319 323 323 322 323 337 335 327 341 346 347 355 355 357 359 362 364 365 366 366 364 363 363 363 363 363 363 362 363 362 362 361 360 356 353 351 351 353 353 352 352
319 318 316 307 307 312 314 317 321 321 322 323 326 329 336 339 344 348 348 354 352 353 359 362 364 364 365 365 364 363 363 363 363 363 362 362 362 361 361 360 359 357 354 351 352 353 354 353 351
318 315 309 308 310 314 318 322 323 320 321 320 324 331 332 344 347 347 349 351 350 352 359 359 363 364 364 365 365 364 363 362 363 363 362 362 361 360 360 359 359 357 354 352 353 353 355 354 354
310 312 305 304 310 315 318 322 322 320 321 320 321 330 337 345 344 346 348 349 350 358 356 357 362 363 363 363 364 363 362 362 362 362 361 361 360 360 359 359 358 357 355 354 354 354 354 354 354
308 308 305 308 309 313 318 323 320 320 320 320 324 324 339 341 346 346 347 350 354 357 354 355 355 360 362 362 362 362 361 361 361 360 360 360 360 359 359 358 357 356 355 354 354 353 353 352 352
311 309 306 308 309 310 319 321 322 320 320 322 326 329 334 343 347 347 346 348 350 353 352 351 353 353 355 358 361 361 361 361 360 360 359 359 359 359 358 357 356 355 355 354 353 352 351 350 349
314 305 303 306 309 312 319 316 321 324 318 319 324 341 346 350 347 345 344 345 347 350 351 350 347 349 349 350 356 359 359 358 359 358 359 356 351 352 352 352 355 356 355 354 353 352 351 350 349
307 304 305 312 313 313 317 316 317 317 316 316 319 336 347 346 345 342 341 341 343 347 348 349 348 348 347 346 353 352 350 351 352 350 354 350 347 350 347 352 356 356 355 354 353 353 352 350 338
309 302 310 313 312 316 315 312 317 313 313 317 319 326 331 343 343 342 342 342 343 347 348 348 352 352 348 347 351 348 349 350 350 351 352 350 348 350 349 353 349 350 353 346 348 347 345 338 337
306 309 309 313 312 311 309 312 313 315 315 319 319 321 325 333 336 339 339 341 343 345 348 349 355 355 357 352 354 349 349 349 349 349 355 352 349 353 352 347 348 349 346 344 344 342 343 341 341
307 309 312 313 313 313 314 311 312 314 318 320 319 319 318 324 332 341 344 342 343 345 348 350 356 359 362 372 354 352 351 351 352 352 353 351 352 351 354 352 349 349 348 346 348 346 348 348 345
310 310 312 314 314 315 312 313 315 316 319 317 319 318 318 320 331 335 344 345 342 345 349 354 356 363 363 366 373 364 365 359 357 355 354 354 357 360 356 358 357 356 357 351 348 349 351 350 350
310 306 311 314 315 313 316 310 311 316 317 315 317 317 319 320 324 335 340 340 343 345 344 353 360 364 364 365 369 368 362 358 362 358 365 358 360 362 365 359 358 358 358 360 358 357 356 355 352
305 308 304 311 313 314 313 305 313 317 316 315 316 317 318 321 322 327 340 338 336 334 344 355 353 362 366 367 366 366 363 367 361 363 360 362 362 361 363 360 356 354 356 356 355 353 352 351 350
303 300 302 306 313 312 311 306 312 317 317 316 315 314 317 320 323 328 330 336 334 332 342 355 356 358 365 368 366 366 368 366 365 363 363 359 361 362 360 357 356 362 360 360 354 352 353 351 352
297 300 304 305 309 311 306 305 311 317 316 313 314 314 317 318 321 327 330 331 337 341 347 346 357 356 366 365 365 363 361 361 363 360 359 361 359 360 360 357 354 357 357 356 354 352 355 354 352
304 303 303 307 308 305 304 306 309 315 314 312 313 312 316 318 321 327 329 332 333 338 340 348 351 358 362 358 356 356 354 358 357 359 365 358 357 359 359 358 355 358 352 356 356 356 354 349 350
301 301 300 304 308 303 302 301 305 307 309 314 312 313 314 316 318 326 329 333 336 338 342 347 349 355 363 360 359 359 355 352 354 355 359 362 356 356 355 352 351 352 353 356 356 354 349 349 350
299 298 299 299 303 304 302 299 302 305 307 314 315 314 316 318 318 325 328 333 335 337 339 343 350 354 356 362 362 364 362 361 358 357 360 357 355 355 354 354 352 355 354 352 354 355 350 345 344
296 302 301 301 299 293 302 291 300 304 304 310 312 313 315 317 321 326 333 334 338 337 340 340 342 352 349 361 357 362 353 347 353 351 355 357 359 359 360 356 356 355 357 353 352 353 350 346 338
299 303 302 301 299 298 298 294 299 304 301 304 309 312 315 319 320 322 326 332 336 340 342 345 349 352 355 361 363 356 355 355 355 353 363 359 361 361 356 356 354 357 355 351 349 347 348 345 341
304 302 301 301 299 292 297 296 296 300 303 305 308 313 316 317 320 323 327 332 333 338 341 344 347 349 351 351 354 355 354 353 352 350 348 353 356 355 353 352 353 351 350 347 346 346 343 342 340
302 300 291 289 290 289 299 296 299 306 307 307 308 313 315 316 318 320 322 324 329 330 335 336 339 338 341 341 339 342 339 351 352 350 344 346 349 349 352 348 347 345 346 344 343 344 341 342 338
300 299 292 286 288 291 299 294 299 308 310 312 314 314 315 316 317 318 321 322 322 326 328 329 329 329 332 336 335 338 338 334 335 339 339 338 336 333 350 340 345 344 344 344 341 340 338 336 335
300 296 302 295 296 293 296 301 306 309 310 312 312 314 315 318 320 319 319 322 322 324 328 327 329 329 331 332 333 334 334 334 332 334 337 334 335 332 334 337 338 342 341 340 340 337 336 336 336
302 304 295 297 289 287 294 297 298 304 306 310 311 313 315 317 317 318 319 324 325 326 327 331 329 328 328 330 330 328 331 331 332 332 331 332 334 331 329 331 332 334 336 340 339 335 335 334 332
300 299 302 300 298 292 288 292 308 307 309 310 311 313 314 314 315 316 318 320 321 323 322 326 325 324 326 327 328 330 327 327 329 329 329 330 331 331 328 328 328 329 329 331 332 334 333 330 331
304 301 303 297 295 298 297 297 311 312 311 312 311 313 314 315 315 316 316 318 318 319 319 319 323 321 323 324 324 325 326 326 327 327 327 327 326 326 324 324 323 323 323 326 328 328 328 328 328
Wind_Speed
15 16 11 11 7 8 16 19 16 3 5 7 6 8 14 8 13 5 10 19 23 20 17 17 17 16 15 14 14 14 15 14 13 12 12 11 11 11 10 9 9 10 10 8 7 6 6 6 7
11 17 9 9 11 12 14 20 17 12 14 6 1 6 22 13 5 13 12 22 20 18 14 16 17 17 16 15 15 15 14 14 14 13 12 11 11 10 10 8 9 9 8 7 6 6 6 5 6
14 15 9 7 13 16 18 10 16 14 11 5 5 23 11 12 11 10 15 24 21 16 15 15 17 16 16 15 15 15 14 13 14 13 13 12 11 10 9 9 8 8 7 6 6 6 5 5 5
9 9 8 11 19 21 25 13 5 18 5 4 8 17 14 33 8 11 18 23 20 19 18 16 17 16 15 15 15 16 16 14 14 14 13 12 12 11 10 9 8 8 6 6 6 6 5 4 3
10 8 12 15 20 22 21 1 10 8 13 10 10 17 22 19 20 19 19 19 19 18 17 16 16 16 15 15 15 15 16 15 14 13 13 12 11 11 10 9 8 7 6 6 6 5 5 4 3
10 10 13 16 21 21 22 13 10 9 17 4 7 16 17 23 21 21 21 19 19 20 16 15 16 16 15 14 14 14 15 14 13 13 12 11 11 10 10 9 8 7 7 6 5 5 5 5 4
15 13 16 20 19 23 20 16 10 9 14 10 5 9 15 24 21 20 19 18 20 20 17 13 14 14 14 14 13 13 13 14 13 12 12 11 11 10 9 8 7 7 6 6 6 6 6 5 6
14 13 22 19 18 24 16 12 4 9 15 10 8 6 17 21 19 18 19 20 20 19 18 15 13 14 12 11 13 12 12 12 11 11 11 11 10 9 9 7 7 7 7 7 7 7 7 7 8
20 15 16 22 20 24 15 22 1 12 7 5 8 15 9 19 13 18 16 17 16 17 16 16 16 13 13 13 11 12 13 12 11 10 10 9 7 8 10 10 11 11 9 9 8 8 8 8 9
16 13 21 17 15 14 7 24 10 10 7 9 12 7 22 30 17 15 16 15 17 20 19 17 16 15 14 12 13 10 10 8 8 8 9 7 8 9 11 13 14 13 11 10 10 10 9 8 6
20 15 18 14 11 2 7 20 20 1 9 5 4 14 16 9 18 17 17 18 17 17 14 18 15 14 14 12 10 6 6 6 6 8 9 8 7 6 7 4 6 6 10 6 9 8 6 9 8
23 22 22 20 5 4 4 12 18 18 10 11 11 6 4 12 16 15 16 18 18 18 16 17 16 12 9 10 10 10 8 8 7 8 9 7 5 5 5 5 8 8 6 8 6 6 9 11 9
26 24 23 21 9 3 5 10 10 22 21 16 13 14 10 17 20 9 4 9 12 15 16 17 14 9 6 3 9 10 9 9 10 10 10 7 6 5 5 4 4 7 7 8 8 7 5 7 5
23 23 23 22 15 10 10 12 12 19 21 24 14 11 16 10 6 13 4 11 13 14 14 15 14 11 7 5 2 4 5 7 7 8 11 13 7 5 5 5 4 4 4 5 7 6 5 5 5
24 23 14 12 11 7 13 20 20 17 17 21 18 16 15 13 8 8 11 13 10 12 16 23 12 13 9 7 4 3 5 4 4 5 7 13 9 6 5 4 5 5 5 6 3 3 2 1 3
26 14 17 24 19 13 9 16 20 17 19 16 16 20 22 15 9 8 7 13 15 5 27 19 13 16 13 9 7 4 4 3 5 3 5 12 12 9 5 4 3 4 3 4 4 4 4 4 5
22 12 12 27 21 17 15 13 21 24 25 12 15 17 21 14 7 7 5 9 21 22 5 4 5 12 16 11 7 7 6 5 4 6 4 8 9 10 6 4 5 4 3 3 4 4 5 4 3
24 22 24 34 23 19 15 18 17 18 17 11 13 19 13 13 7 8 4 6 7 2 5 4 2 5 10 9 7 4 6 6 6 6 5 7 9 10 7 5 4 5 4 5 4 5 2 1 4
25 21 26 23 15 20 19 16 13 13 13 16 12 13 14 11 18 6 9 9 9 7 5 4 2 3 1 4 7 6 5 5 6 6 7 8 10 10 10 5 6 5 10 6 3 2 1 2 3
28 26 23 20 21 18 16 14 13 17 14 21 14 7 11 16 12 6 8 6 4 6 5 2 3 3 3 2 2 2 5 6 6 7 7 7 8 7 8 8 3 16 9 7 4 3 1 3 3
23 25 22 13 12 15 9 14 13 13 18 19 13 12 10 5 6 6 6 7 8 5 5 5 3 3 5 5 3 3 2 4 2 4 4 6 14 19 12 12 12 10 9 5 5 5 6 4 3
22 23 22 21 16 12 17 13 19 16 18 19 23 18 15 11 4 5 0 3 2 4 6 5 4 3 5 5 4 4 4 6 4 7 7 9 9 8 7 9 8 7 5 5 5 5 4 5 4
21 23 11 15 13 16 20 15 10 20 16 16 11 11 12 12 8 6 7 3 3 8 8 6 7 7 4 4 3 5 6 4 3 6 5 6 4 2 5 5 7 5 4 4 4 3 5 4 4
21 14 16 17 11 13 19 15 14 17 21 20 15 9 8 8 10 8 7 6 8 9 8 7 7 6 6 5 3 3 6 7 6 5 2 3 2 4 5 6 6 6 3 3 2 3 2 2 2
15 11 8 9 11 13 18 16 14 12 23 22 19 12 7 3 10 4 7 10 9 8 7 8 9 9 9 10 11 10 10 6 5 4 5 6 3 4 4 2 2 2 1 3 4 3 4 4 3
22 18 11 17 12 16 18 17 15 12 19 19 18 16 13 10 12 8 9 10 8 7 7 7 8 7 8 8 8 8 9 7 6 7 5 3 2 4 1 4 4 3 3 5 5 3 3 4 5
20 19 19 11 14 11 11 13 13 20 19 21 18 15 15 8 9 11 10 11 10 8 5 5 7 6 6 6 6 6 6 7 7 8 7 7 7 7 8 7 5 5 5 6 5 5 5 6 6
17 12 17 9 16 4 5 14 11 18 19 20 19 14 9 7 8 7 5 7 5 8 6 3 4 4 5 5 4 5 5 6 6 5 6 7 6 7 6 4 5 6 6 6 6 7 7 8 8
10 13 14 14 11 11 4 7 8 16 15 15 17 15 12 7 7 8 7 8 5 3 9 4 4 6 3 4 3 2 4 5 5 5 5 5 6 6 6 8 7 7 7 7 7 8 10 12 11
15 14 11 7 12 7 6 8 3 4 10 9 14 14 12 7 3 6 4 5 4 3 4 1 3 5 2 3 4 5 4 4 4 5 6 6 6 7 8 9 10 10 10 8 9 11 13 14 14
Wind_Direction
286 269 245 259 255 231 260 254 253 16 184 68 35 1 113 116 178 166 107 107 120 135 135 136 128 127 130 137 138 134 133 136 136 132 130 127 119 118 115 115 111 106 102 105 107 106 105 100 92
293 291 274 274 243 254 248 250 254 189 98 79 337 155 72 72 89 122 120 115 123 131 146 138 132 129 133 138 137 135 137 140 139 137 135 133 123 128 129 121 111 108 108 110 115 115 111 106 93
269 259 274 241 236 247 255 354 12 217 108 147 249 90 77 316 285 127 118 113 123 139 145 134 132 129 131 136 136 135 137 144 142 142 141 136 130 133 133 129 123 119 122 126 132 136 134 119 111
259 230 242 263 252 242 254 289 336 325 99 211 242 92 119 153 233 120 138 126 139 147 133 139 132 131 133 137 139 140 142 147 147 148 144 142 141 142 139 139 137 132 133 147 156 156 148 137 139
241 267 235 243 244 253 254 130 302 248 271 190 253 120 133 171 116 147 140 141 141 140 131 145 136 135 138 141 142 146 147 150 152 150 149 150 148 149 149 152 151 145 160 172 171 170 168 180 191
234 225 252 234 247 245 259 124 272 248 289 245 219 136 125 132 146 149 146 149 142 121 141 145 138 139 143 146 149 150 148 151 153 154 154 154 154 160 161 162 161 164 179 188 180 185 194 207 224
239 229 234 251 250 250 234 247 214 253 278 304 317 170 143 149 146 148 145 141 128 129 137 149 152 145 144 147 150 150 150 155 156 156 155 158 162 169 171 171 170 180 193 196 198 200 209 222 231
230 248 248 236 259 266 267 236 166 246 256 3 310 59 159 146 144 141 145 137 136 135 143 151 154 159 160 157 155 154 155 156 154 157 161 164 168 175 180 176 186 195 204 209 213 212 220 230 230
258 243 242 247 229 257 1 314 147 250 341 323 314 84 95 21 140 146 148 142 145 140 149 156 162 163 169 160 164 158 163 159 157 163 170 164 189 182 187 200 192 197 205 216 221 223 226 236 246
239 240 239 244 275 235 334 297 288 223 231 249 268 92 133 121 256 161 160 156 156 149 159 159 164 164 174 164 151 176 174 180 183 181 174 200 215 181 202 199 189 190 203 218 224 227 230 236 250
218 244 248 248 27 40 188 305 329 304 246 227 58 34 11 197 180 166 171 168 164 161 162 158 160 163 175 158 150 173 172 185 186 192 175 203 215 226 199 147 172 184 206 217 212 220 223 227 229
225 219 251 269 80 17 307 335 318 325 264 6 356 12 66 327 284 186 186 173 167 163 164 151 149 163 189 145 157 170 184 181 182 195 184 190 224 249 197 175 191 195 194 204 232 211 214 218 233
230 226 229 250 144 230 322 295 306 301 324 339 321 326 312 150 260 237 187 161 169 159 153 150 148 159 195 197 166 168 189 178 185 179 183 194 206 236 193 236 228 177 206 194 215 210 210 211 214
223 235 228 235 265 203 261 290 302 286 314 314 284 285 285 281 258 324 319 53 56 356 345 135 150 154 178 210 178 158 172 180 179 176 182 189 198 217 232 198 234 263 260 208 202 207 208 209 227
230 234 223 236 267 225 265 266 249 269 284 291 331 300 287 278 255 180 291 79 18 25 76 275 159 160 175 199 213 208 179 225 191 194 179 183 195 221 232 219 198 215 231 265 295 335 325 295 299
228 204 255 219 201 235 171 255 274 266 250 274 287 297 290 263 257 286 166 108 147 43 226 187 173 165 172 178 183 205 233 209 206 221 198 175 185 199 223 232 253 242 228 227 208 223 219 237 233
213 228 195 272 219 184 180 230 256 251 241 252 265 279 270 264 208 268 306 168 176 190 186 179 170 168 173 174 178 186 210 213 238 209 206 181 187 185 182 232 227 225 220 250 219 218 203 239 275
205 187 243 223 210 199 184 235 250 259 235 230 256 288 277 307 258 218 232 324 0 218 158 142 359 200 159 167 171 195 200 213 224 231 205 188 197 181 179 218 242 263 233 229 234 236 165 135 291
214 205 221 235 191 184 211 223 235 226 222 213 248 272 274 273 306 39 44 18 357 357 12 358 167 329 154 143 176 182 219 212 214 222 220 193 185 195 155 171 279 216 231 228 171 176 322 264 291
215 215 228 231 186 198 198 230 240 255 219 218 217 275 257 267 288 34 25 357 356 340 330 317 322 303 285 190 195 226 199 219 210 218 204 178 100 55 210 193 200 240 232 216 183 163 290 285 251
222 235 236 234 172 183 215 233 233 228 251 219 218 251 275 182 135 321 30 17 348 321 326 346 295 272 286 258 226 210 276 298 281 218 177 171 169 199 190 199 221 246 236 166 187 174 188 221 294
219 228 242 212 190 217 197 243 206 211 220 204 221 198 178 199 160 112 147 37 40 345 29 9 331 286 258 240 247 276 214 229 242 259 207 181 186 172 173 211 235 238 265 218 168 196 179 168 218
232 219 221 242 215 211 205 220 239 187 208 212 219 210 185 152 173 119 73 11 42 50 40 33 5 5 6 341 288 340 309 281 293 306 54 72 107 244 223 208 222 238 233 283 206 171 176 188 208
228 234 196 234 230 210 239 203 233 191 196 199 210 138 92 107 112 127 100 70 38 63 68 54 48 32 22 15 351 321 323 336 332 2 10 87 165 237 236 212 196 204 218 278 222 184 198 224 268
216 210 210 200 226 240 227 212 236 187 181 190 183 132 127 153 100 64 101 79 73 60 78 79 60 48 37 34 32 32 16 348 334 351 10 288 221 216 208 157 189 139 159 288 301 222 221 211 212
201 207 218 199 211 228 232 215 228 132 178 152 134 146 166 152 146 149 115 125 97 54 49 65 55 50 42 37 38 28 16 15 26 23 1 349 322 25 159 187 177 201 210 224 235 264 241 226 223
190 221 237 309 295 253 233 99 99 123 127 141 146 145 159 147 130 153 146 142 128 101 50 77 85 68 53 48 33 31 14 19 23 5 357 5 4 349 18 352 350 271 230 231 243 226 235 228 223
228 210 227 212 252 351 227 153 164 164 157 150 154 152 129 146 171 175 118 98 71 126 141 80 54 81 71 35 29 34 346 6 2 354 349 345 342 346 329 331 318 301 292 263 245 251 239 230 232
187 232 253 245 246 230 156 330 295 166 166 166 149 148 143 166 189 169 173 133 174 162 114 79 10 335 63 33 353 349 357 349 339 346 322 317 320 308 296 294 291 276 277 271 264 252 258 266 261
236 226 234 243 253 308 77 131 80 76 125 157 162 154 150 130 35 332 58 78 42 91 358 338 127 296 315 350 347 330 317 307 309 301 303 303 301 302 301 298 289 283 277 276 269 257 255 256 258